Location: Bemmer
(51.5498°N, 5.6249°E)
Time: 12:40:52
(UTC+00:00)

OBJECT-B - Pass Details

Date: 03 March 2021
Orbit: 414 x 427 km, 97.0° (Epoch: 11 April)

Event Time Altitude Azimuth Distance (km) Brightness Sun altitude
Exits shadow 19:38:15 60° 254° (WSW) 488 1.2 -21.8°
Maximum altitude 19:38:18 60° 259° (W) 488 1.2 -21.8°
Drops below altitude 10° 19:41:30 10° 341° (NNW) 1,515 4.0 -22.3°
Sets 19:43:32 0° 345° (NNW) 2,383 5.1 -22.6°
